* Astronomy

Members Login
Username 
 
Password 
    Remember Me  
Post Info TOPIC: Asteroid 2011 XM1


L

Posts: 131433
Date:
Asteroid 2011 XM1
Permalink  
 


Orbital elements:
2011 XM1                                            PHA, Earth MOID = 0.0455 AU
Epoch 2011 Aug. 27.0 TT = JDT 2455800.5                 MPC
M 344.19432              (2000.0)            P               Q
n   0.21492074     Peri.  163.20800     +0.39827459     -0.89729502
a   2.7602632      Node   262.98869     +0.81799734     +0.44134383
e   0.6697042      Incl.   11.05783     +0.41503941     -0.00879019
P   4.59           H   20.2           G   0.15           U   8

MPEC 2011 - X27



__________________
Page 1 of 1  sorted by
 
Quick Reply

Please log in to post quick replies.



Create your own FREE Forum
Report Abuse
Powered by ActiveBoard